Weather History for KLNR - November, 2012

Change the Weather History Date:

Wednesday, November 21, 2012

  Actual Average Record
Temperature  
Mean Temperature 45 °F -  
Max Temperature 57 °F 41 °F 57 °F (2001)
Min Temperature 33 °F 25 °F 1 °F (2014)
Degree Days  
Heating Degree Days 20    
Moisture  
Dew Point 39 °F    
Average Humidity 87    
Maximum Humidity 100    
Minimum Humidity 57    
Precipitation  
Precipitation 0.00 in - - ()
Sea Level Pressure  
Sea Level Pressure 30.10 in    
Wind  
Wind Speed 4 mph (SSE)    
Max Wind Speed 10 mph    
Max Gust Speed -    
Visibility 3 miles    
Events Fog    
Averages and records for this station are not official NWS values.
T = Trace of Precipitation, MM = Missing Value Source: NWS Daily Summary

Daily Weather History Graph

Daily Weather History Graph

Search for Another Location

Airport or City:

Trip Planner

Search our weather history database for the weather conditions in past years. The results will help you decide how hot, cold, wet, or windy it might be!

Date:

Astronomy

Nov. 21, 2012 Rise Set
Actual Time 7:01 AM CST 4:31 PM CST
Civil Twilight 6:30 AM CST 5:02 PM CST
Nautical Twilight 5:55 AM CST 5:37 PM CST
Astronomical Twilight 5:21 AM CST 6:11 PM CST
Moon 12:57 PM CST (11/21) 12:10 AM CST (11/21)
Length of Visible Light 10h 31m
Length of Day
9h 29m
First Quarter, 62% of the Moon is Illuminated
Nov 21
First Quarter
Nov 28
Full
Dec 6
Last Quarter
Dec 13
New
Dec 19
First Quarter

Hourly Weather History & Observations

Time (CST) Temp. Windchill Dew Point Humidity Pressure Visibility Wind Dir Wind Speed Gust Speed Precip Events Conditions
12:56 AM 37.0 °F 33.3 °F 37.0 °F 100% 30.18 in 0.2 mi West 4.6 mph - N/A Fog Fog
1:56 AM 36.0 °F - 36.0 °F 100% 30.16 in 0.2 mi Calm Calm - N/A Fog Fog
2:56 AM 35.1 °F 31.0 °F 34.0 °F 96% 30.16 in 0.2 mi SE 4.6 mph - N/A Fog Fog
3:56 AM 34.0 °F - 34.0 °F 100% 30.18 in 0.2 mi Calm Calm - N/A Fog Fog
4:28 AM 33.8 °F 30.8 °F 33.8 °F 100% 30.17 in 0.2 mi South 3.5 mph - N/A Fog Fog
4:54 AM 33.8 °F - 33.8 °F 100% 30.17 in 0.5 mi Calm Calm - N/A Fog Fog
4:56 AM 34.0 °F - 34.0 °F 100% 30.18 in 0.5 mi Calm Calm - N/A Fog Fog
5:04 AM 33.8 °F - 33.8 °F 100% 30.17 in 0.2 mi Calm Calm - N/A Fog Fog
5:56 AM 34.0 °F 31.0 °F 33.1 °F 96% 30.17 in 0.2 mi SSE 3.5 mph - N/A Fog Fog
6:41 AM 33.8 °F 30.8 °F 33.8 °F 100% 30.17 in 0.5 mi South 3.5 mph - N/A Fog Fog
6:56 AM 34.0 °F 28.8 °F 33.1 °F 96% 30.17 in 0.2 mi ESE 5.8 mph - N/A Fog Fog
7:56 AM 34.0 °F 29.8 °F 34.0 °F 100% 30.17 in 0.2 mi East 4.6 mph - N/A Fog Fog
8:53 AM 35.6 °F 31.7 °F 35.6 °F 100% 30.16 in 0.5 mi ESE 4.6 mph - N/A Fog Fog
8:56 AM 36.0 °F 32.1 °F 36.0 °F 100% 30.17 in 0.5 mi ESE 4.6 mph - N/A Fog Fog
9:23 AM 37.4 °F 32.8 °F 37.4 °F 100% 30.16 in 1.0 mi East 5.8 mph - N/A   Overcast
9:56 AM 39.9 °F 37.8 °F 39.0 °F 97% 30.15 in 1.8 mi ESE 3.5 mph - N/A   Overcast
10:09 AM 41.0 °F 39.0 °F 39.2 °F 93% 30.15 in 2.0 mi East 3.5 mph - N/A   Mostly Cloudy
10:17 AM 42.8 °F 38.0 °F 42.8 °F 100% 30.15 in 3.0 mi South 8.1 mph - N/A   Scattered Clouds
10:56 AM 48.9 °F - 42.1 °F 77% 30.12 in 5.0 mi SSE 4.6 mph - N/A   Haze
11:56 AM 54.0 °F - 43.0 °F 66% 30.08 in 7.0 mi South 6.9 mph - N/A   Clear
12:56 PM 57.0 °F - 42.1 °F 57% 30.05 in 8.0 mi South 10.4 mph - N/A   Clear
2:56 PM 57.0 °F - 44.1 °F 62% 30.02 in 7.0 mi SSW 6.9 mph - N/A   Clear
3:56 PM 55.0 °F - 44.1 °F 67% 30.02 in 6.0 mi South 5.8 mph - N/A   Haze
4:56 PM 52.0 °F - 44.1 °F 74% 30.02 in 6.0 mi South 6.9 mph - N/A   Haze
5:56 PM 46.9 °F - 41.0 °F 80% 30.01 in 6.0 mi Calm Calm - N/A   Haze
6:56 PM 50.0 °F - 42.1 °F 74% 30.00 in 6.0 mi Calm Calm - N/A   Haze
7:56 PM 52.0 °F - 42.1 °F 69% 30.00 in 8.0 mi South 9.2 mph - N/A   Clear
8:56 PM 51.1 °F - 42.1 °F 71% 29.99 in 8.0 mi Variable 4.6 mph - N/A   Clear
9:56 PM 51.1 °F - 43.0 °F 74% 29.99 in 8.0 mi Variable 4.6 mph - N/A   Clear
10:56 PM 50.0 °F - 43.0 °F 77% 29.98 in 8.0 mi South 6.9 mph - N/A   Clear
11:56 PM 50.0 °F - 42.1 °F 74% 29.96 in 8.0 mi SW 3.5 mph - N/A   Clear